Regional Weather Roundup
Issued by NWS

Home | Current Version | Previous Version | Text Only | Print | Product List | Glossary On
Versions: 1 2 3 4 5 6 7 8 9 10 11 12 13 14 15 16 17 18 19 20 21 22 23 24 25 26 27 28 29 30 31 32 33 34 35 36 37 38 39 40 41 42 43 44 45 46 47 48 49 50
000
ASUS43 KBIS 021710
RWRND

NORTH DAKOTA REGIONAL WEATHER ROUNDUP
NATIONAL WEATHER SERVICE BISMARCK ND
1200 PM CDT WED SEP 02 2015

NOTE: "FAIR" INDICATES FEW OR NO CLOUDS BELOW 12,000 FEET WITH NO
SIGNIFICANT WEATHER AND/OR OBSTRUCTIONS TO VISIBILITY.


NDZ001>003-009>011-017-021800-
NORTHWEST NORTH DAKOTA

CITY           SKY/WX    TMP DP  RH WIND       PRES   REMARKS
WILLISTON      SUNNY     86  61  42 S12       29.74S
MINOT          SUNNY     84  65  52 E13       29.76S
MINOT AFB      SUNNY     85  68  56 E10       29.75S
$$

NDZ018>021-031>035-040>046-021800-
SOUTHWEST NORTH DAKOTA

CITY           SKY/WX    TMP DP  RH WIND       PRES   REMARKS
BISMARCK       SUNNY     76  68  76 E8        29.79S
DICKINSON      SUNNY     87  52  29 S14       29.78F
GARRISON         N/A     82  66  58 SE6       29.78S
HETTINGER ARPT SUNNY     85  56  37 SE8       29.82F
$$

NDZ004>008-012>016-024-026-027-054-021800-
NORTHEAST NORTH DAKOTA

CITY           SKY/WX    TMP DP  RH WIND       PRES   REMARKS
GRAND FORKS    SUNNY     81  67  62 S12       29.81F
GRND FRKS AFB  SUNNY     80  69  68 S13       29.82S
DEVILS LAKE    SUNNY     81  66  61 S10       29.80S
$$

NDZ022-023-025-028>030-036>039-047>053-021800-
SOUTHEAST NORTH DAKOTA

CITY           SKY/WX    TMP DP  RH WIND       PRES   REMARKS
FARGO          SUNNY     83  67  58 S12       29.82S
JAMESTOWN      SUNNY     81  69  67 SE8       29.81F
$$



USA.gov is the U.S. government's official web portal to all federal, state and local government web resources and services.